Dewpoint
10 4 16 15 19 15 24 22 18 17 16 14 26 31 22 17 22 17 29 21 24 25 18 16 14 13 13 12 18 53 54 55 57 58 58 59 59 60 60 61 61 61 61 62 62 61 62 64 64 64 65 65 67 67 68 67 67 67 67 69 69 68 67
13 14 14 14 16 15 16 16 18 21 16 18 27 18 26 24 20 22 20 21 22 19 24 15 14 12 10 12 12 39 54 54 56 57 57 58 59 59 60 60 61 61 61 62 62 62 63 64 64 64 65 65 66 67 68 68 68 67 66 67 68 68 67
11 13 13 13 16 17 15 14 16 13 26 21 26 27 18 19 21 19 21 20 20 26 32 15 14 14 13 14 16 18 54 55 55 56 57 58 58 58 59 60 61 62 62 62 63 63 64 65 65 64 64 65 66 67 68 68 68 68 67 66 67 68 67
8 9 12 17 14 18 19 17 15 17 17 18 24 31 24 21 21 25 19 19 19 29 27 21 15 16 16 17 18 15 51 54 56 55 56 56 57 57 59 60 61 62 63 63 63 64 64 65 65 65 64 65 65 66 68 68 68 69 68 66 67 67 67
7 10 12 9 11 13 13 14 15 19 26 21 20 27 21 23 22 19 21 19 26 24 20 18 27 25 19 17 26 23 20 52 54 54 55 55 56 58 59 60 61 62 63 64 64 64 64 65 65 65 64 64 65 65 67 69 69 69 68 67 67 67 68
14 7 9 15 14 13 13 13 13 14 14 19 20 19 19 17 21 20 18 19 25 20 21 27 32 43 25 18 26 36 23 28 54 54 54 55 56 58 58 59 60 62 63 64 64 64 64 64 65 65 65 65 64 65 66 69 69 69 69 68 67 68 68
17 17 17 17 15 13 12 12 11 11 13 13 18 17 26 22 25 19 25 21 21 23 28 27 46 50 48 26 24 31 29 29 52 53 54 56 57 57 56 57 59 60 62 64 64 64 64 64 64 65 65 65 64 65 66 69 70 70 69 69 68 68 68
21 18 17 18 18 14 10 11 13 11 9 10 14 20 29 22 22 25 26 29 19 19 31 45 50 52 53 39 27 29 30 30 50 53 54 56 57 57 57 58 59 60 62 64 64 64 63 63 64 65 65 65 65 65 66 68 69 70 70 70 69 69 69
21 19 20 19 20 17 15 19 20 24 25 25 25 26 26 23 26 27 25 25 24 28 39 50 53 53 54 55 56 52 47 42 43 39 46 55 57 57 57 57 59 61 62 63 64 64 65 65 66 66 66 65 65 65 65 67 69 70 71 71 70 70 69
21 19 19 27 26 25 24 23 22 22 23 23 24 25 27 27 36 34 31 30 31 34 34 40 52 53 54 56 56 55 54 54 54 57 56 53 56 57 57 57 59 61 62 63 64 64 65 65 66 67 67 66 66 66 66 67 69 70 71 71 71 71 70
22 24 26 26 26 21 20 19 16 16 18 20 24 30 32 30 31 31 34 38 34 32 30 38 51 52 53 54 56 55 53 53 54 55 57 56 56 59 57 57 59 60 61 61 63 65 65 64 66 67 67 66 66 66 66 67 68 70 71 71 71 71 71
23 21 20 20 21 17 17 16 15 16 17 20 23 25 25 33 30 27 38 37 30 31 30 46 51 50 56 55 56 56 54 53 53 54 56 60 57 59 61 63 60 59 60 61 63 64 64 64 66 67 67 66 66 66 66 66 67 68 70 71 71 71 71
19 18 17 16 19 15 15 14 13 12 13 13 14 22 24 28 26 27 33 36 32 30 37 49 50 51 51 57 56 55 54 53 53 54 54 56 57 58 59 61 64 67 62 63 63 64 64 63 65 66 66 66 66 66 66 66 67 67 69 70 71 71 71
21 20 19 19 17 15 13 13 13 14 15 14 14 16 18 19 26 25 24 31 30 35 50 52 52 54 53 59 55 54 53 52 53 53 53 54 56 57 57 59 60 62 66 68 68 67 66 63 64 65 65 66 66 66 66 66 67 67 68 69 71 71 71
23 22 21 19 18 16 14 13 14 15 16 14 13 13 16 24 21 21 23 32 35 50 53 54 53 55 56 56 56 52 52 52 52 52 52 53 54 55 56 57 58 60 61 63 66 68 68 68 69 67 66 65 66 65 65 65 66 66 67 69 70 70 71
23 23 20 19 18 17 16 15 16 15 14 13 12 16 21 23 24 25 24 29 36 51 54 55 51 51 55 55 54 52 50 50 51 51 51 52 53 54 55 56 58 59 60 60 62 65 67 68 70 69 69 71 67 65 65 65 65 66 66 68 69 70 71
23 23 23 22 20 20 17 16 15 14 14 14 15 14 18 20 19 20 24 31 46 48 51 50 51 52 52 54 53 55 53 49 49 49 50 50 51 52 54 55 57 57 59 61 61 62 64 69 69 69 70 71 71 70 70 72 72 72 71 67 68 70 71
24 23 24 26 25 19 17 20 16 34 35 36 36 31 32 36 34 36 39 41 46 47 48 48 47 52 50 49 51 54 54 51 48 48 49 49 49 50 51 53 55 56 57 63 62 61 62 63 64 73 72 71 68 68 71 71 72 72 71 71 70 70 71
26 26 28 25 21 20 23 20 39 40 39 41 38 37 36 43 43 43 43 43 43 44 45 46 46 47 50 47 46 47 51 50 47 47 48 49 49 49 50 52 53 55 56 57 62 63 64 64 64 65 67 67 67 72 71 70 70 71 71 70 69 69 70
27 25 24 20 20 27 24 21 44 42 39 40 41 40 40 43 42 43 42 42 43 43 43 43 45 46 47 48 47 46 46 49 47 46 46 47 48 49 50 51 51 54 54 56 56 59 65 65 66 66 67 66 70 70 70 69 68 68 69 69 68 68 70
24 24 23 23 26 25 26 28 41 40 39 39 41 38 39 42 42 42 42 42 42 42 43 43 44 45 48 49 47 45 45 47 48 47 46 45 47 48 50 50 50 53 53 54 56 58 59 62 60 63 67 69 67 67 66 67 67 67 68 68 68 68 70
27 24 23 21 20 19 23 41 42 41 43 41 41 42 39 43 42 42 42 42 42 42 42 43 44 47 49 49 45 44 44 46 47 50 47 45 46 48 49 50 53 52 52 54 55 56 57 58 60 60 63 66 64 65 68 66 66 66 66 66 67 68 69
28 25 22 20 18 22 37 39 41 41 39 44 43 39 35 42 42 42 42 42 42 42 42 42 44 45 46 47 45 44 44 45 47 49 50 45 45 47 48 50 50 51 52 54 55 55 56 57 58 59 62 65 65 65 67 69 65 64 65 65 66 67 70
30 26 23 21 24 27 38 40 40 39 39 43 41 29 32 41 41 42 42 42 42 42 43 43 43 42 41 42 43 44 45 46 49 50 52 50 45 46 47 49 51 51 53 52 53 53 54 56 58 58 59 61 63 64 66 68 69 66 63 65 66 67 69
31 30 26 27 30 40 40 40 41 40 43 41 33 28 39 41 42 42 42 41 41 42 42 43 42 43 43 43 44 44 45 46 49 52 54 51 46 45 46 48 53 50 51 52 52 53 54 56 57 57 59 59 62 63 65 66 68 69 67 64 65 68 71
30 28 26 26 31 34 38 43 41 44 39 32 28 40 43 43 42 41 41 41 42 42 42 42 42 43 44 45 45 44 45 47 49 50 52 51 50 47 48 50 50 49 51 52 53 53 54 55 56 57 58 59 61 63 65 66 68 69 70 66 64 67 72
33 31 26 25 23 35 40 41 38 42 37 39 42 42 42 42 41 41 41 41 42 42 42 42 42 43 43 44 45 45 46 46 47 48 52 53 52 48 47 47 48 51 51 51 52 52 53 54 55 56 57 59 61 63 64 66 68 71 71 69 65 66 70
30 28 26 27 33 38 42 40 36 40 41 43 42 41 39 41 41 41 41 41 42 42 41 41 42 43 43 44 45 45 45 45 46 50 51 52 50 49 48 48 49 52 51 52 52 52 53 54 55 56 57 59 60 62 63 65 68 71 73 71 67 65 68
35 31 34 39 42 44 42 43 43 43 43 43 42 41 40 40 40 41 40 40 41 41 41 41 42 42 43 44 45 44 45 45 46 49 51 50 52 50 50 49 51 52 51 51 52 52 53 54 55 56 58 59 60 61 63 65 68 72 74 71 67 65 67
40 40 38 42 42 39 37 42 43 41 40 40 40 40 40 40 40 41 40 41 40 41 41 41 41 42 43 44 44 45 45 46 46 49 51 52 52 53 51 50 51 53 52 51 52 52 53 54 55 57 57 58 59 61 63 65 69 73 75 73 68 68 68
32 29 42 39 37 37 37 38 38 40 39 39 39 40 40 40 40 41 41 41 41 41 41 41 41 42 43 44 44 45 46 47 47 48 51 52 53 52 51 51 53 53 53 52 52 53 53 55 56 57 57 58 60 62 64 67 72 74 74 73 69 69 70
33 32 35 37 37 36 41 38 37 37 38 38 39 40 40 40 41 41 41 41 40 41 40 41 41 41 42 43 44 45 46 47 48 49 49 52 52 53 52 52 53 53 53 52 52 53 54 55 56 57 58 58 60 62 66 72 72 72 73 72 70 70 71
34 35 37 37 37 35 42 39 38 38 39 39 39 40 40 40 40 40 41 42 41 41 41 41 41 41 42 43 44 45 46 47 48 49 50 51 52 52 52 52 55 54 53 52 53 54 55 55 56 57 58 60 62 65 71 72 71 71 72 71 70 70 71
30 33 36 37 34 34 36 37 38 38 40 40 40 40 40 40 40 41 41 41 42 41 41 41 41 41 42 43 44 45 46 47 47 49 50 50 51 52 52 53 54 53 53 53 54 54 55 56 57 58 60 63 66 70 71 71 71 70 72 73 71 71 72
32 35 37 40 39 38 38 38 39 40 41 41 40 40 40 41 40 40 41 41 41 41 41 41 41 41 42 43 43 44 45 46 47 48 49 50 51 51 53 54 53 53 53 54 55 55 56 58 59 61 62 64 66 70 71 72 71 70 71 71 73 73 73
34 35 36 39 39 38 38 39 41 42 42 41 40 40 40 40 40 40 41 41 41 42 42 42 42 42 43 43 44 44 45 46 47 48 49 51 51 53 54 54 54 53 53 54 54 55 57 59 59 59 61 64 66 68 71 72 72 71 70 70 70 70 72
34 36 36 39 40 39 40 41 41 40 41 42 40 40 40 41 41 41 40 41 41 41 41 42 41 42 43 44 45 45 45 46 48 49 52 53 53 53 54 54 53 53 52 53 54 56 58 59 58 60 61 63 65 66 68 71 72 71 70 70 70 70 69